Probability
0 0 0 0 0 0 0 0 0 0 0 0 0 0 0 0 0 0 0 0 0 0 0 0 0 0 0 0 0 0 0 0 0 0 0 0 0 0 0 0 0 0 0 0
0 0 0 0 0 0 0 0 0 0 0 0 0 0 0 0 0 0 0 0 0 0 0 0 0 0 0 0 0 0 0 0 0 0 0 0 0 0 0 0 0 0 0 0
0 0 0 0 0 0 0 0 0 0 0 0 0 0 0 0 0 0 0 0 0 0 0 0 0 0 0 0 0 0 0 0 0 0 0 0 0 0 0 0 0 0 0 0
0 0 0 0 0 0 0 0 0 0 0 0 0 0 0 0 0 0 0 0 0 0 0 0 0 0 0 0 0 0 0 0 0 0 0 0 0 0 0 0 0 0 0 0
0 0 0 0 0 0 0 0 0 0 0 0 0 0 0 0 0 0 0 0 0 0 0 0 0 0 0 0 0 0 0 0 0 0 0 0 0 0 0 0 0 0 0 0
0 0 0 0 0 0 0 0 0 0 0 0 0 0 0 0 0 0 0 0 0 0 0 0 0 0 0 0 0 0 0 0 0 0 0 0 0 0 0 0 0 0 0 0
0 0 0 0 0 0 0 0 0 0 0 0 0 0 0 0 0 0 0 0 0 0 0 0 0 0 0 0 0 0 0 0 0 0 0 0 0 0 0 0 0 0 0 0
0 0 0 0 0 0 0 0 0 0 0 0 0 0 0 0 0 0 0 0 0 0 0 0 0 0 0 0 0 0 0 0 0 0 0 0 0 0 0 0 0 0 0 0
0 0 0 0 0 0 0 0 0 0 0 0 0 0 0 0 0 0 0 0 0 0 0 0 0 0 0 0 0 0 0 0 0 0 0 0 0 0 0 0 0 0 0 0
0 0 0 0 0 0 0 0 0 0 0 0 0 0 0 0 0 0 0 0 0 0 0 0 0 0 0 0 0 0 0 0 0 0 0 0 0 0 0 0 0 0 0 0
0 0 0 0 0 0 0 0 0 0 0 0 0 0 0 0 0 0 0 0 0 0 0 0 0 0 0 0 0 0 0 0 0 0 0 0 0 0 0 0 0 0 0 0
0 0 0 0 0 0 0 0 0 0 0 0 0 0 0 0 0 0 0 0 0 0 0 0 0 0 0 0 0 0 0 0 0 0 0 0 0 0 0 0 0 0 0 0
0 0 0 0 0 0 0 0 0 0 0 0 0 0 0 0 0 0 0 0 0 0 0 0 0 0 0 0 0 0 0 0 0 0 0 0 0 0 0 0 0 0 0 0
0 0 0 0 0 0 0 0 0 0 0 0 0 0 0 0 0 0 0 0 0 0 0 0 0 0 0 0 0 0 0 0 0 0 0 0 0 0 0 0 0 0 0 0
0 0 0 0 0 0 0 0 0 0 0 0 0 0 0 0 0 0 0 0 0 0 0 0 0 0 0 0 0 0 0 0 0 0 0 0 0 0 0 0 0 0 0 0
0 0 0 0 0 0 0 0 0 0 0 0 0 0 0 0 0 0 0 0 0 0 0 0 0 0 0 0 0 0 0 0 0 0 0 0 0 0 0 0 0 0 0 0
0 0 0 0 0 0 0 0 0 0 0 0 0 0 0 0 0 0 0 0 0 0 0 0 0 0 0 0 0 0 0 0 0 0 0 0 0 0 0 0 0 0 0 0
0 0 0 0 0 0 0 0 0 0 0 0 0 0 0 0 0 0 0 0 0 0 0 0 0 0 0 0 0 0 0 0 0 0 0 0 0 0 0 0 0 0 0 0
0 0 0 0 0 0 0 0 0 0 0 0 0 0 0 0 0 0 0 0 0 0 0 0 0 0 0 0 0 0 0 0 0 0 0 0 0 0 0 0 0 0 0 0
0 0 0 0 0 0 0 0 0 0 0 0 0 0 0 0 0 0 0 0 0 0 0 0 0 0 0 0 0 0 0 0 0 0 0 0 0 0 0 0 0 0 0 0
0 0 0 0 0 0 0 0 0 0 0 0 0 0 0 0 0 0 0 0 0 0 0 0 0 0 0 0 0 0 0 0 0 0 0 0 0 0 0 0 0 0 0 0
0 0 0 0 0 0 0 0 0 0 0 0 0 0 0 0 0 0 0 0 0 0 0 0 0 0 0 0 0 0 0 0 0 0 0 0 0 0 0 0 0 0 0 0
0 0 0 0 0 0 0 0 0 0 0 0 0 0 0 0 0 0 0 0 0 0 0 0 0 0 0 0 0 0 0 0 0 0 0 0 0 0 0 0 0 0 0 0
0 0 0 0 0 0 0 0 0 0 0 0 0 0 0 0 0 0 0 0 0 0 0 0 0 0 0 0 0 0 0 0 0 0 0 0 0 0 0 0 0 0 0 0
0 0 0 0 0 0 0 0 0 0 0 0 0 0 0 0 0 0 0 0 0 0 0 0 0 0 0 0 0 0 0 0 0 0 0 0 0 0 0 0 0 0 0 0
0 0 0 0 0 0 0 0 0 0 0 0 0 0 0 0 0 0 0 0 0 0 0 0 0 0 0 0 0 0 0 0 0 0 0 0 0 0 0 0 0 0 0 0
0 0 0 0 0 0 0 0 0 0 0 0 0 0 0 0 0 0 0 0 0 0 0 0 0 0 0 0 0 0 0 0 0 0 0 0 0 0 0 0 0 0 0 0
Height
5730 5733 5736 5738 5741 5742 5742 5743 5744 5745 5747 5749 5750 5750 5751 5750 5750 5749 5748 5746 5744 5741 5738 5735 5731 5727 5723 5718 5713 5708 5702 5696 5690 5683 5676 5669 5662 5655 5648 5641 5633 5625 5617 5609
5719 5722 5724 5727 5731 5733 5734 5735 5735 5736 5738 5741 5740 5740 5740 5741 5740 5739 5738 5736 5733 5730 5728 5725 5722 5718 5713 5708 5703 5698 5691 5685 5679 5672 5664 5657 5651 5644 5637 5629 5621 5613 5605 5596
5708 5711 5711 5714 5722 5723 5724 5725 5726 5725 5728 5728 5729 5729 5730 5730 5730 5729 5728 5726 5723 5720 5718 5715 5712 5707 5703 5698 5693 5687 5680 5674 5667 5661 5654 5647 5640 5633 5625 5617 5609 5601 5592 5584
5696 5699 5700 5707 5708 5710 5711 5713 5713 5713 5714 5715 5716 5717 5717 5719 5719 5719 5718 5715 5712 5710 5708 5705 5701 5697 5693 5688 5682 5676 5670 5664 5657 5650 5644 5637 5630 5622 5615 5607 5598 5589 5581 5572
5685 5685 5687 5693 5693 5692 5694 5697 5698 5699 5700 5701 5702 5702 5704 5706 5707 5707 5706 5704 5702 5700 5698 5695 5692 5688 5683 5679 5673 5667 5661 5654 5648 5641 5635 5628 5620 5612 5604 5596 5587 5578 5569 5560
5675 5674 5676 5679 5679 5678 5680 5682 5684 5685 5686 5688 5689 5690 5693 5693 5693 5694 5694 5693 5692 5691 5689 5686 5682 5678 5674 5670 5665 5659 5652 5646 5639 5633 5626 5619 5611 5603 5594 5585 5576 5567 5558 5549
5664 5664 5664 5665 5665 5665 5668 5670 5671 5672 5673 5675 5676 5679 5680 5680 5682 5682 5683 5683 5683 5682 5680 5677 5674 5671 5667 5662 5657 5651 5644 5638 5632 5626 5618 5611 5602 5593 5585 5575 5566 5557 5548 5539
5655 5655 5657 5654 5654 5655 5656 5657 5658 5659 5661 5662 5664 5666 5667 5669 5671 5672 5674 5674 5674 5672 5671 5669 5667 5664 5660 5655 5650 5644 5638 5632 5625 5618 5610 5602 5593 5584 5575 5566 5556 5547 5539 5530
5647 5649 5647 5645 5644 5645 5646 5647 5648 5649 5651 5652 5654 5656 5658 5660 5663 5664 5666 5666 5666 5666 5665 5663 5661 5658 5654 5648 5643 5637 5632 5625 5618 5611 5603 5594 5585 5576 5567 5558 5549 5540 5532 5524
5640 5641 5639 5638 5637 5637 5638 5638 5639 5641 5642 5644 5646 5649 5651 5653 5656 5658 5659 5660 5660 5661 5660 5658 5655 5652 5647 5642 5637 5632 5626 5619 5611 5604 5596 5587 5578 5569 5560 5552 5543 5535 5527 5520
5634 5634 5633 5632 5631 5630 5630 5631 5632 5633 5636 5638 5641 5644 5646 5648 5650 5652 5654 5656 5656 5656 5655 5653 5650 5646 5641 5637 5632 5627 5620 5613 5605 5597 5589 5581 5572 5563 5555 5547 5539 5531 5524 5516
5628 5628 5627 5627 5626 5625 5626 5627 5629 5631 5633 5635 5638 5641 5644 5646 5648 5650 5652 5652 5652 5651 5650 5648 5645 5641 5637 5633 5628 5621 5614 5607 5600 5592 5583 5575 5566 5559 5550 5543 5535 5528 5521 5514
5623 5623 5624 5624 5624 5624 5625 5627 5629 5631 5633 5635 5638 5641 5643 5645 5647 5648 5649 5649 5649 5648 5646 5643 5641 5638 5634 5629 5623 5616 5609 5602 5594 5586 5578 5569 5562 5554 5547 5540 5533 5525 5519 5512
5621 5622 5622 5623 5625 5625 5627 5629 5631 5633 5635 5637 5639 5641 5643 5645 5645 5646 5646 5646 5645 5644 5642 5641 5638 5635 5631 5625 5619 5612 5605 5597 5589 5580 5572 5565 5558 5551 5544 5537 5531 5524 5518 5512
5622 5622 5623 5624 5626 5627 5629 5631 5633 5634 5636 5638 5640 5641 5642 5643 5644 5644 5644 5643 5643 5642 5641 5639 5637 5633 5628 5622 5616 5609 5601 5592 5584 5575 5568 5560 5554 5548 5542 5536 5529 5523 5517 5512
5624 5624 5624 5626 5628 5630 5631 5633 5634 5636 5638 5639 5641 5642 5642 5643 5643 5643 5642 5642 5642 5642 5641 5639 5635 5631 5626 5620 5613 5605 5597 5588 5579 5571 5563 5557 5551 5546 5541 5535 5530 5523 5518 5513
5626 5626 5626 5628 5629 5631 5633 5634 5636 5638 5639 5640 5641 5642 5642 5642 5642 5642 5643 5643 5643 5642 5641 5639 5635 5631 5625 5619 5611 5602 5593 5584 5575 5567 5560 5554 5550 5545 5541 5536 5530 5525 5519 5514
5626 5627 5628 5630 5631 5633 5634 5636 5637 5639 5640 5641 5642 5642 5642 5642 5643 5644 5645 5645 5645 5644 5642 5639 5635 5630 5624 5617 5609 5600 5591 5582 5573 5566 5560 5554 5550 5546 5542 5537 5532 5526 5521 5517
5626 5628 5629 5630 5632 5633 5635 5637 5638 5639 5641 5642 5643 5643 5643 5644 5645 5646 5647 5647 5647 5646 5644 5640 5636 5630 5624 5617 5608 5599 5590 5581 5574 5567 5561 5556 5552 5548 5544 5539 5534 5529 5525 5521
5626 5627 5629 5630 5632 5634 5636 5637 5639 5640 5641 5643 5644 5644 5645 5647 5648 5649 5650 5650 5649 5648 5645 5641 5637 5631 5625 5617 5608 5599 5591 5583 5576 5569 5564 5559 5556 5552 5547 5543 5537 5532 5528 5524
5624 5626 5628 5630 5632 5634 5636 5637 5639 5641 5642 5644 5645 5647 5648 5650 5651 5652 5653 5653 5652 5650 5647 5643 5639 5633 5626 5618 5610 5601 5593 5586 5580 5574 5569 5564 5560 5556 5551 5546 5541 5536 5532 5528
5622 5624 5627 5629 5631 5633 5636 5638 5640 5642 5644 5646 5647 5649 5651 5653 5654 5655 5656 5656 5654 5652 5649 5646 5641 5635 5628 5621 5613 5605 5598 5591 5585 5579 5574 5569 5565 5560 5556 5551 5546 5542 5537 5534
5620 5622 5625 5627 5630 5632 5635 5638 5640 5642 5645 5647 5649 5651 5653 5655 5657 5658 5659 5658 5657 5655 5652 5649 5644 5638 5632 5625 5618 5611 5604 5598 5592 5586 5580 5575 5570 5566 5561 5557 5552 5548 5543 5540
5617 5620 5623 5625 5628 5631 5635 5637 5640 5643 5645 5647 5650 5652 5655 5657 5659 5660 5661 5661 5660 5658 5656 5652 5648 5643 5637 5630 5624 5618 5612 5606 5600 5594 5588 5582 5577 5572 5567 5563 5558 5554 5550 5546
5614 5617 5620 5624 5627 5630 5634 5637 5640 5643 5645 5648 5650 5653 5657 5659 5661 5663 5663 5663 5663 5662 5659 5656 5652 5647 5642 5637 5632 5626 5620 5615 5609 5603 5597 5591 5585 5580 5575 5570 5566 5562 5558 5554
5611 5615 5618 5622 5626 5629 5633 5637 5640 5642 5645 5648 5651 5655 5658 5661 5663 5665 5666 5666 5666 5665 5663 5661 5657 5653 5648 5644 5639 5634 5629 5624 5618 5612 5607 5601 5595 5590 5585 5580 5575 5571 5567 5563
5610 5613 5616 5620 5624 5629 5633 5636 5639 5642 5645 5648 5651 5655 5659 5662 5665 5667 5668 5669 5669 5669 5667 5665 5662 5659 5655 5651 5647 5643 5638 5633 5628 5622 5617 5612 5606 5601 5596 5591 5586 5582 5577 5573
Wind_Speed
48 47 46 45 43 43 43 44 46 47 47 46 46 45 44 43 42 42 43 44 45 46 46 47 48 46 47 49 50 50 50 50 50 50 49 49 48 48 47 46 46 47 49 52
55 53 53 52 49 48 48 48 48 49 48 47 47 47 47 46 46 46 47 47 48 49 50 50 49 49 49 50 49 49 49 49 49 49 48 48 47 46 46 46 48 50 53 55
62 61 61 60 56 55 56 55 55 55 53 53 52 51 51 51 51 51 52 52 53 53 53 52 50 48 47 47 49 48 47 47 47 46 47 46 46 46 46 48 51 53 54 55
57 59 62 61 61 60 60 59 60 60 60 59 59 58 57 57 56 55 55 55 55 55 54 51 48 46 47 48 47 45 44 45 45 46 45 45 45 46 48 51 52 53 54 54
48 52 54 54 55 56 57 56 55 56 57 58 57 58 57 55 54 54 53 53 53 51 49 46 46 45 44 44 44 43 43 44 44 44 44 45 46 48 50 52 53 53 53 52
45 48 50 51 51 52 53 52 50 50 50 51 51 52 51 50 49 49 49 48 47 45 43 43 41 39 40 40 41 42 43 43 42 42 43 45 47 49 50 51 52 51 51 49
40 43 46 46 47 48 48 47 45 44 45 46 47 47 47 47 46 45 44 42 40 39 38 36 34 35 36 38 39 40 41 40 40 41 43 45 48 49 49 50 50 49 48 46
32 33 34 37 39 40 41 39 37 37 37 38 39 40 40 40 38 37 36 35 35 36 33 30 31 33 34 36 37 37 37 37 39 41 43 46 47 47 47 47 46 45 44 42
28 27 28 29 31 31 31 31 30 31 31 32 32 32 32 32 32 30 31 32 30 27 25 26 29 31 32 33 34 34 34 36 39 41 43 44 44 44 44 43 42 41 40 38
26 25 27 27 28 28 28 27 26 26 25 25 24 23 24 24 26 27 27 25 23 21 22 24 27 29 30 30 30 31 33 36 39 41 42 42 41 40 40 39 39 37 35 34
23 23 23 24 24 23 22 20 20 19 18 17 16 18 20 20 21 20 17 17 16 17 20 22 25 26 26 26 27 30 33 36 38 39 39 38 38 37 37 36 35 33 31 29
17 18 18 17 16 14 12 11 10 11 12 13 14 15 15 14 12 11 11 12 13 15 18 20 21 21 22 23 27 31 34 35 37 37 36 36 35 35 34 33 32 30 28 26
11 10 10 8 7 6 8 9 8 9 10 10 9 8 8 7 7 6 7 9 11 14 15 15 16 17 20 24 28 31 33 34 35 36 36 35 34 32 32 31 30 28 27 24
5 7 9 10 12 12 12 11 9 8 7 7 6 6 5 3 3 4 7 9 10 10 10 11 13 17 21 25 28 31 32 34 35 36 35 33 31 29 28 28 28 27 25 22
4 8 11 12 11 10 10 9 7 6 5 5 4 2 1 2 4 5 6 6 5 5 6 10 15 19 23 26 28 30 33 35 35 35 33 29 27 25 25 25 26 25 23 20
4 8 10 10 9 8 8 7 6 5 4 3 2 2 2 4 5 5 3 3 3 5 8 13 17 21 23 26 29 32 34 35 34 32 29 26 23 22 22 23 24 24 21 18
5 7 8 8 8 7 6 6 5 5 4 3 2 2 3 4 4 4 6 6 6 8 12 15 18 21 24 28 31 33 33 33 31 28 25 22 20 20 21 22 23 22 20 18
7 7 7 7 7 6 5 5 4 3 3 2 2 4 5 5 8 9 9 8 8 11 14 16 19 23 26 29 31 31 31 30 28 27 24 21 19 19 20 22 23 22 20 19
9 8 7 6 5 4 3 3 3 2 2 2 3 4 6 9 11 10 9 9 10 12 15 18 21 25 28 29 30 31 31 29 28 26 23 21 19 19 21 23 23 22 20 19
11 10 8 6 5 4 3 2 2 1 1 2 3 6 9 11 12 10 9 9 11 14 17 20 23 26 28 30 31 33 32 30 28 26 24 22 20 21 22 24 24 23 21 19
12 11 10 8 7 5 4 3 2 2 2 2 5 9 12 13 12 10 10 10 13 15 18 22 24 26 29 31 34 35 34 33 30 28 26 24 22 23 24 25 26 25 23 21
14 13 12 10 9 7 5 4 4 4 4 5 8 11 14 14 13 11 10 11 13 16 19 22 24 27 31 33 36 37 36 35 32 30 28 27 25 25 26 26 27 26 25 23
16 15 14 12 11 9 8 7 6 6 6 8 11 14 15 14 12 11 10 12 14 17 19 22 25 29 32 35 37 38 37 36 34 33 31 30 28 28 28 28 28 28 27 25
17 18 17 16 13 11 10 10 9 9 9 10 13 17 17 16 13 11 11 12 14 16 19 22 26 29 32 35 37 38 38 37 37 36 34 33 32 31 30 30 29 29 28 28
17 18 19 18 16 14 13 13 12 11 10 12 16 19 19 16 14 12 11 12 13 15 18 22 26 29 33 35 36 37 38 38 38 38 38 37 37 36 34 33 32 31 30 29
17 18 19 19 17 16 15 14 13 12 12 14 18 21 20 18 15 12 11 11 12 14 18 21 25 29 32 34 35 36 37 38 39 40 40 40 40 40 39 39 38 36 35 34
15 18 19 19 19 18 17 16 14 13 13 15 20 23 22 19 16 13 11 11 12 13 17 20 24 28 31 33 35 36 37 39 40 41 42 42 43 43 43 43 43 42 42 41
Wind_Direction
254 254 253 253 253 256 258 259 261 264 266 269 272 274 276 279 282 284 287 289 290 292 294 296 298 299 299 301 305 309 312 314 313 312 312 312 312 312 311 310 310 311 312 312
253 255 257 258 259 261 263 265 267 268 268 271 273 274 276 279 281 283 285 287 289 291 293 296 298 298 299 302 306 310 312 313 312 312 313 313 313 312 311 312 314 315 315 314
254 255 257 260 262 264 267 268 269 269 270 271 272 274 276 278 281 283 284 285 287 289 293 295 296 297 301 305 309 311 311 311 312 313 314 314 313 313 314 315 316 316 315 314
258 259 259 263 263 263 264 265 267 268 269 270 271 272 273 275 278 280 282 283 285 288 291 293 294 297 301 306 309 310 311 312 314 315 315 314 314 315 316 317 317 316 315 314
261 262 263 264 265 266 265 265 265 265 266 268 270 271 273 274 276 277 278 279 282 286 289 289 291 295 301 306 307 309 311 314 315 315 315 315 316 317 317 317 316 315 315 316
263 264 265 266 266 266 266 267 266 266 266 267 267 269 270 271 272 273 274 277 280 282 281 281 287 296 302 304 307 310 313 315 314 314 314 316 317 318 318 317 317 317 318 320
263 264 266 267 268 268 269 269 268 268 266 265 265 266 267 267 268 270 272 274 274 271 270 279 291 298 301 304 308 312 313 313 313 314 316 318 319 319 318 318 319 321 322 323
268 267 268 267 267 268 270 270 270 268 266 265 264 264 264 264 266 268 267 265 259 258 268 284 293 297 301 306 310 312 312 312 313 316 319 320 320 320 321 322 324 325 326 327
269 270 270 271 271 270 270 269 267 266 266 264 262 261 260 260 261 261 255 249 252 263 277 287 293 299 304 308 310 311 311 313 317 320 321 322 322 324 326 327 328 329 330 330
266 267 269 271 271 270 270 269 266 265 263 260 256 253 249 250 248 243 238 246 259 271 282 290 297 303 307 309 310 311 314 318 321 323 323 325 326 328 330 331 332 333 334 335
264 265 267 268 269 271 267 263 261 255 248 241 233 237 237 237 235 234 242 253 264 276 288 298 304 307 308 309 311 315 320 323 324 325 326 328 331 333 335 335 336 337 338 341
264 263 261 261 266 261 251 240 230 216 213 213 211 211 216 221 228 235 245 261 278 292 301 305 307 308 310 313 318 323 326 327 327 328 330 332 334 336 338 340 341 342 345 348
264 249 232 221 210 192 176 175 172 174 175 176 183 190 196 205 219 239 266 287 299 305 307 308 309 313 318 323 327 329 330 329 330 331 333 334 336 338 340 343 346 348 350 353
237 201 188 174 161 153 151 151 148 146 150 158 167 173 183 204 254 292 305 309 311 313 315 318 321 326 330 333 335 334 333 333 333 333 334 335 337 339 343 347 351 353 355 358
155 167 163 157 152 147 147 147 142 139 139 135 134 129 100 336 326 323 322 325 331 338 339 337 336 338 340 341 339 338 337 336 335 334 335 336 339 343 348 353 356 358 0 3
141 154 156 152 149 143 141 141 138 132 122 109 83 32 359 345 342 346 7 49 51 21 0 351 348 348 349 347 345 343 341 339 338 338 340 343 348 353 357 0 3 5 7 10
157 154 154 150 149 145 141 139 133 125 118 102 61 20 6 8 32 78 96 88 56 24 6 359 358 358 356 353 350 347 345 345 347 350 353 356 0 4 7 8 10 13 18 22
176 170 162 159 155 151 149 145 136 126 113 81 43 24 31 68 97 105 99 77 45 22 12 9 8 6 1 358 355 354 354 357 1 3 6 9 13 15 15 15 17 21 27 31
185 184 184 179 172 170 169 161 150 136 104 51 38 53 85 107 113 108 93 66 40 26 21 19 15 10 6 4 5 6 8 10 11 13 16 21 24 24 22 21 23 27 31 36
196 195 201 205 206 213 220 205 180 158 106 59 76 98 116 122 118 106 86 61 42 33 29 24 19 14 13 15 17 19 20 20 21 24 27 29 31 29 28 28 30 32 36 40
201 201 205 210 215 227 234 220 198 179 153 128 123 128 132 130 119 104 83 60 47 40 34 27 22 21 23 25 26 27 28 29 30 32 34 36 36 35 34 34 36 38 42 46
200 201 207 214 221 228 225 212 199 183 166 155 146 144 143 137 125 108 83 64 53 45 36 30 28 29 31 32 33 33 34 35 36 37 38 39 39 38 38 39 40 42 45 49
200 203 209 217 222 223 218 208 197 186 175 166 157 152 149 141 127 108 84 69 59 48 40 36 35 36 37 38 37 38 38 39 40 41 42 42 41 41 42 42 43 44 47 50
203 204 209 214 217 215 209 199 190 185 178 169 161 157 153 146 132 112 89 74 63 52 45 42 41 42 43 42 42 42 43 44 44 44 45 45 45 45 45 45 46 47 49 52
202 204 206 208 210 207 200 191 185 183 175 168 164 160 156 149 136 116 95 80 69 58 51 48 47 48 47 46 46 45 46 47 47 48 48 49 49 49 49 49 50 51 52 54
196 198 200 200 199 195 190 185 182 179 173 168 165 162 158 152 142 123 103 88 77 66 59 55 54 53 52 51 50 49 49 50 50 51 51 51 52 53 53 54 55 56 57 58
190 191 192 192 190 186 182 180 179 177 172 167 166 165 162 157 147 130 112 98 87 77 68 63 61 59 57 56 55 54 54 54 54 54 55 55 55 56 56 57 58 59 59 60